| time (UTC) | temp C | wind direction | speed KPH | gust KPH | rain 1hr cm | rain 24hr cm | rain mn cm | humidity % | barometer mb |
| 20260507201037 | 20 | 217 | 6.4 | 9.7 | 0.00 | 0.00 | 0.00 | 14 | 1019.4 |
| 20260507200107 | 20 | 240 | 8.0 | 16.1 | 0.00 | 0.00 | 0.00 | 17 | 1019.4 |
| 20260507195058 | 20 | 238 | 6.4 | 14.5 | 0.00 | 0.00 | 0.00 | 16 | 1019.6 |
| 20260507194048 | 20 | 245 | 9.7 | 14.5 | 0.00 | 0.00 | 0.00 | 13 | 1019.8 |
| 20260507193038 | 20 | 245 | 9.7 | 14.5 | 0.00 | 0.00 | 0.00 | 13 | 1019.8 |
| 20260507192028 | 20 | 245 | 9.7 | 14.5 | 0.00 | 0.00 | 0.00 | 13 | 1019.9 |
| 20260507191018 | 20 | 245 | 9.7 | 14.5 | 0.00 | 0.00 | 0.00 | 13 | 1020.1 |
| 20260507190108 | 20 | 245 | 9.7 | 14.5 | 0.00 | 0.00 | 0.00 | 13 | 1020.2 |
| 20260507185119 | 20 | 238 | 12.9 | 19.3 | 0.00 | 0.00 | 0.00 | 13 | 1019.9 |
| 20260507184049 | 20 | 231 | 9.7 | 17.7 | 0.00 | 0.00 | 0.00 | 14 | 1020.1 |
| 20260507183039 | 20 | 221 | 8.0 | 22.5 | 0.00 | 0.00 | 0.00 | 12 | 1020.1 |
| 20260507182029 | 20 | 226 | 14.5 | 29.0 | 0.00 | 0.00 | 0.00 | 15 | 1020.3 |
| 20260507181019 | 19 | 186 | 6.4 | 17.7 | 0.00 | 0.00 | 0.00 | 15 | 1020.5 |
| 20260507180110 | 18 | 209 | 12.9 | 25.7 | 0.00 | 0.00 | 0.00 | 22 | 1020.2 |
| 20260507175100 | 18 | 189 | 6.4 | 16.1 | 0.00 | 0.00 | 0.00 | 26 | 1020.6 |
| 20260507174050 | 17 | 234 | 4.8 | 11.3 | 0.00 | 0.00 | 0.00 | 27 | 1020.7 |
| 20260507173040 | 17 | 358 | 6.4 | 14.5 | 0.00 | 0.00 | 0.00 | 28 | 1020.9 |
| 20260507172030 | 16 | 7 | 9.7 | 16.1 | 0.00 | 0.00 | 0.00 | 30 | 1020.8 |
| 20260507171020 | 16 | 49 | 6.4 | 12.9 | 0.00 | 0.00 | 0.00 | 31 | 1021.2 |
| 20260507170111 | 16 | 18 | 6.4 | 12.9 | 0.00 | 0.00 | 0.00 | 31 | 1021.1 |
| 20260507165121 | 15 | 204 | 3.2 | 14.5 | 0.00 | 0.00 | 0.00 | 32 | 1021.3 |
| 20260507164051 | 15 | 17 | 8.0 | 14.5 | 0.00 | 0.00 | 0.00 | 33 | 1021.3 |
| 20260507163041 | 15 | 27 | 6.4 | 16.1 | 0.00 | 0.00 | 0.00 | 35 | 1021.4 |
| 20260507162031 | 15 | 358 | 4.8 | 11.3 | 0.00 | 0.00 | 0.00 | 35 | 1021.5 |
| 20260507161021 | 13 | 357 | 4.8 | 12.9 | 0.00 | 0.00 | 0.00 | 37 | 1021.5 |
| 20260507160112 | 13 | 29 | 3.2 | 12.9 | 0.00 | 0.00 | 0.00 | 41 | 1021.6 |
| 20260507155102 | 12 | 346 | 8.0 | 12.9 | 0.00 | 0.00 | 0.00 | 44 | 1021.5 |
| 20260507154052 | 12 | 9 | 8.0 | 12.9 | 0.00 | 0.00 | 0.00 | 46 | 1021.8 |
| 20260507153042 | 12 | 9 | 8.0 | 11.3 | 0.00 | 0.00 | 0.00 | 48 | 1021.8 |
| 20260507152052 | 11 | 30 | 6.4 | 11.3 | 0.00 | 0.00 | 0.00 | 50 | 1021.9 |
| 20260507151122 | 10 | 23 | 6.4 | 12.9 | 0.00 | 0.00 | 0.00 | 52 | 1021.9 |
| 20260507150113 | 10 | 9 | 8.0 | 12.9 | 0.00 | 0.00 | 0.00 | 54 | 1022.0 |
| 20260507145103 | 9 | 9 | 9.7 | 14.5 | 0.00 | 0.00 | 0.00 | 56 | 1022.1 |
| 20260507144053 | 8 | 17 | 8.0 | 11.3 | 0.00 | 0.00 | 0.00 | 58 | 1022.3 |
| 20260507143043 | 8 | 21 | 8.0 | 11.3 | 0.00 | 0.00 | 0.00 | 60 | 1022.3 |
| 20260507142033 | 7 | 19 | 8.0 | 11.3 | 0.00 | 0.00 | 0.00 | 62 | 1022.3 |
| 20260507141023 | 7 | 7 | 4.8 | 8.0 | 0.00 | 0.00 | 0.00 | 65 | 1022.3 |
| 20260507140114 | 5 | 30 | 4.8 | 11.3 | 0.00 | 0.00 | 0.00 | 71 | 1022.4 |
| 20260507135104 | 5 | 9 | 3.2 | 8.0 | 0.00 | 0.00 | 0.00 | 72 | 1022.4 |
| 20260507134054 | 3 | 60 | 3.2 | 6.4 | 0.00 | 0.00 | 0.00 | 79 | 1022.4 |
| 20260507133044 | 2 | 44 | 1.6 | 6.4 | 0.00 | 0.00 | 0.00 | 81 | 1022.2 |
| 20260507132054 | 0 | 151 | 4.8 | 9.7 | 0.00 | 0.00 | 0.00 | 88 | 1022.3 |
| 20260507131024 | 0 | 146 | 1.6 | 6.4 | 0.00 | 0.00 | 0.00 | 91 | 1022.3 |
| 20260507130115 | -1 | 64 | 1.6 | 6.4 | 0.00 | 0.00 | 0.00 | 92 | 1022.2 |
| 20260507125105 | -1 | 236 | 1.6 | 6.4 | 0.00 | 0.00 | 0.00 | 93 | 1022.1 |
| 20260507124055 | -1 | 131 | 4.8 | 8.0 | 0.00 | 0.00 | 0.00 | 93 | 1022.1 |
| 20260507123105 | -1 | 181 | 1.6 | 6.4 | 0.00 | 0.00 | 0.00 | 93 | 1022.0 |
| 20260507122035 | -1 | 174 | 4.8 | 9.7 | 0.00 | 0.00 | 0.00 | 92 | 1022.0 |
| 20260507121025 | -1 | 194 | 1.6 | 4.8 | 0.00 | 0.00 | 0.00 | 92 | 1022.0 |
| 20260507120115 | -1 | 167 | 3.2 | 8.0 | 0.00 | 0.00 | 0.00 | 91 | 1022.0 |
| 20260507115106 | -1 | 1 | 3.2 | 6.4 | 0.00 | 0.00 | 0.00 | 91 | 1022.0 |
| 20260507114116 | -1 | 163 | 3.2 | 8.0 | 0.00 | 0.00 | 0.00 | 91 | 1022.0 |
| 20260507113126 | -1 | 202 | 1.6 | 6.4 | 0.00 | 0.00 | 0.00 | 91 | 1022.3 |
| 20260507112036 | -1 | 176 | 4.8 | 8.0 | 0.00 | 0.00 | 0.00 | 90 | 1022.3 |
| 20260507111025 | 0 | 208 | 0.0 | 9.7 | 0.00 | 0.00 | 0.00 | 89 | 1022.4 |
| 20260507110015 | 0 | 154 | 1.6 | 8.0 | 0.00 | 0.00 | 0.00 | 88 | 1022.4 |
| 20260507105107 | 0 | 51 | 3.2 | 6.4 | 0.00 | 0.00 | 0.00 | 87 | 1022.4 |
| 20260507104057 | 0 | 139 | 3.2 | 9.7 | 0.00 | 0.00 | 0.00 | 90 | 1022.5 |
| 20260507103047 | 0 | 192 | 1.6 | 9.7 | 0.00 | 0.00 | 0.00 | 88 | 1022.6 |
| 20260507102037 | 0 | 200 | 1.6 | 8.0 | 0.00 | 0.00 | 0.00 | 88 | 1022.4 |
| 20260507101026 | 0 | 193 | 1.6 | 3.2 | 0.00 | 0.00 | 0.00 | 89 | 1022.4 |
| 20260507100016 | 0 | 0.0 | 1.6 | 0.00 | 0.00 | 0.00 | 87 | 1022.6 | |
| 20260507095108 | 0 | 129 | 0.0 | 3.2 | 0.00 | 0.00 | 0.00 | 87 | 1022.5 |
| 20260507094057 | 0 | 176 | 1.6 | 3.2 | 0.00 | 0.00 | 0.00 | 85 | 1022.4 |
| 20260507093047 | 0 | 139 | 0.0 | 3.2 | 0.00 | 0.00 | 0.00 | 83 | 1022.2 |
| 20260507092037 | 0 | 140 | 1.6 | 4.8 | 0.00 | 0.00 | 0.00 | 84 | 1022.1 |
| 20260507091027 | 0 | 185 | 3.2 | 4.8 | 0.00 | 0.00 | 0.00 | 82 | 1022.1 |
| 20260507090017 | 0 | 0.0 | 4.8 | 0.00 | 0.00 | 0.00 | 82 | 1022.1 | |
| 20260507085109 | 0 | 169 | 3.2 | 6.4 | 0.00 | 0.00 | 0.00 | 82 | 1022.2 |
| 20260507084059 | 0 | 143 | 1.6 | 4.8 | 0.00 | 0.00 | 0.00 | 81 | 1022.2 |
| 20260507083049 | 1 | 50 | 0.0 | 3.2 | 0.00 | 0.00 | 0.00 | 81 | 1022.1 |
| 20260507082039 | 1 | 149 | 0.0 | 3.2 | 0.00 | 0.00 | 0.00 | 79 | 1022.1 |
| 20260507081049 | 1 | 149 | 3.2 | 3.2 | 0.00 | 0.00 | 0.00 | 77 | 1022.2 |
| 20260507080019 | 2 | 87 | 0.0 | 3.2 | 0.00 | 0.00 | 0.00 | 76 | 1022.3 |
| 20260507075110 | 2 | 152 | 1.6 | 3.2 | 0.00 | 0.00 | 0.00 | 73 | 1022.4 |
| 20260507074100 | 2 | 160 | 1.6 | 3.2 | 0.00 | 0.00 | 0.00 | 75 | 1022.3 |
| 20260507073110 | 2 | 203 | 3.2 | 6.4 | 0.00 | 0.00 | 0.00 | 72 | 1022.5 |
| 20260507072040 | 3 | 118 | 0.0 | 4.8 | 0.00 | 0.00 | 0.00 | 71 | 1022.4 |
| 20260507071030 | 4 | 125 | 0.0 | 4.8 | 0.00 | 0.00 | 0.00 | 67 | 1022.4 |
| 20260507070040 | 4 | 123 | 3.2 | 3.2 | 0.00 | 0.00 | 0.00 | 67 | 1022.6 |
| 20260507065111 | 5 | 143 | 3.2 | 6.4 | 0.00 | 0.00 | 0.00 | 66 | 1022.4 |
| 20260507064101 | 5 | 151 | 1.6 | 4.8 | 0.00 | 0.00 | 0.00 | 65 | 1022.3 |
| 20260507063051 | 5 | 139 | 4.8 | 6.4 | 0.00 | 0.00 | 0.00 | 62 | 1022.1 |
| 20260507062041 | 6 | 156 | 3.2 | 6.4 | 0.00 | 0.00 | 0.00 | 61 | 1022.0 |
| 20260507061031 | 6 | 182 | 1.6 | 6.4 | 0.00 | 0.00 | 0.00 | 59 | 1022.0 |
| 20260507060021 | 7 | 150 | 3.2 | 4.8 | 0.00 | 0.00 | 0.00 | 57 | 1021.8 |
| 20260507055112 | 7 | 188 | 3.2 | 6.4 | 0.00 | 0.00 | 0.00 | 56 | 1021.9 |
| 20260507054101 | 7 | 197 | 4.8 | 9.7 | 0.00 | 0.00 | 0.00 | 56 | 1021.9 |
| 20260507053051 | 7 | 191 | 3.2 | 6.4 | 0.00 | 0.00 | 0.00 | 53 | 1021.7 |
| 20260507052041 | 8 | 174 | 1.6 | 4.8 | 0.00 | 0.00 | 0.00 | 50 | 1021.7 |
| 20260507051031 | 8 | 162 | 3.2 | 6.4 | 0.00 | 0.00 | 0.00 | 45 | 1021.6 |
| 20260507050021 | 9 | 248 | 3.2 | 8.0 | 0.00 | 0.00 | 0.00 | 45 | 1021.6 |
| 20260507045133 | 10 | 11 | 4.8 | 12.9 | 0.00 | 0.00 | 0.00 | 33 | 1021.3 |
| 20260507044103 | 8 | 19 | 3.2 | 4.8 | 0.00 | 0.00 | 0.00 | 27 | 1020.9 |
| 20260507043053 | 7 | 170 | 3.2 | 6.4 | 0.00 | 0.00 | 0.00 | 28 | 1020.8 |
| 20260507042043 | 8 | 23 | 1.6 | 4.8 | 0.00 | 0.00 | 0.00 | 29 | 1020.3 |
| 20260507041033 | 9 | 66 | 0.0 | 3.2 | 0.00 | 0.00 | 0.00 | 28 | 1020.0 |
| 20260507040023 | 11 | 105 | 0.0 | 3.2 | 0.00 | 0.00 | 0.00 | 26 | 1019.9 |
| 20260507035114 | 11 | 187 | 3.2 | 9.7 | 0.00 | 0.00 | 0.00 | 22 | 1019.7 |
| 20260507034104 | 12 | 179 | 6.4 | 9.7 | 0.00 | 0.00 | 0.00 | 22 | 1019.6 |
| 20260507033054 | 11 | 208 | 9.7 | 16.1 | 0.00 | 0.00 | 0.00 | 22 | 1019.5 |
| 20260507032104 | 11 | 211 | 8.0 | 11.3 | 0.00 | 0.00 | 0.00 | 23 | 1019.5 |
| 20260507031054 | 11 | 195 | 4.8 | 6.4 | 0.00 | 0.00 | 0.00 | 24 | 1019.4 |
| 20260507030024 | 11 | 191 | 3.2 | 6.4 | 0.00 | 0.00 | 0.00 | 24 | 1019.2 |
| 20260507025115 | 10 | 194 | 3.2 | 9.7 | 0.00 | 0.00 | 0.00 | 25 | 1019.1 |
| 20260507024105 | 11 | 158 | 3.2 | 3.2 | 0.00 | 0.00 | 0.00 | 24 | 1019.0 |
| 20260507023055 | 11 | 169 | 1.6 | 4.8 | 0.00 | 0.00 | 0.00 | 24 | 1018.8 |
| 20260507022045 | 12 | 139 | 1.6 | 4.8 | 0.00 | 0.00 | 0.00 | 22 | 1018.8 |
| 20260507021034 | 12 | 115 | 3.2 | 9.7 | 0.00 | 0.00 | 0.00 | 22 | 1018.6 |
| 20260507020025 | 13 | 134 | 3.2 | 4.8 | 0.00 | 0.00 | 0.00 | 21 | 1018.3 |
| 20260507015116 | 14 | 153 | 3.2 | 6.4 | 0.00 | 0.00 | 0.00 | 20 | 1018.0 |
| 20260507014126 | 14 | 200 | 4.8 | 9.7 | 0.00 | 0.00 | 0.00 | 19 | 1018.0 |
| 20260507013056 | 15 | 220 | 4.8 | 8.0 | 0.00 | 0.00 | 0.00 | 19 | 1017.9 |
| 20260507012046 | 15 | 199 | 6.4 | 14.5 | 0.00 | 0.00 | 0.00 | 19 | 1017.7 |
| 20260507011036 | 15 | 241 | 6.4 | 16.1 | 0.00 | 0.00 | 0.00 | 18 | 1017.7 |
| 20260507010026 | 16 | 215 | 6.4 | 16.1 | 0.00 | 0.00 | 0.00 | 18 | 1017.5 |
| 20260507005016 | 16 | 241 | 8.0 | 19.3 | 0.00 | 0.00 | 0.00 | 17 | 1017.4 |
| 20260507004107 | 16 | 253 | 9.7 | 19.3 | 0.00 | 0.00 | 0.00 | 17 | 1017.2 |
| 20260507003057 | 16 | 253 | 9.7 | 19.3 | 0.00 | 0.00 | 0.00 | 17 | 1017.2 |
| 20260507002047 | 16 | 247 | 9.7 | 25.7 | 0.00 | 0.00 | 0.00 | 17 | 1017.1 |
| 20260507001037 | 16 | 222 | 9.7 | 27.4 | 0.00 | 0.00 | 0.00 | 17 | 1017.0 |
| 20260507000027 | 17 | 237 | 8.0 | 17.7 | 0.00 | 0.00 | 0.00 | 17 | 1016.9 |
| 20260506235017 | 17 | 228 | 8.0 | 19.3 | 0.00 | 0.00 | 0.00 | 16 | 1016.9 |
| 20260506234108 | 17 | 232 | 9.7 | 22.5 | 0.00 | 0.00 | 0.00 | 18 | 1016.7 |
| 20260506233058 | 16 | 224 | 8.0 | 22.5 | 0.00 | 0.00 | 0.00 | 18 | 1016.5 |
| 20260506232048 | 17 | 214 | 11.3 | 24.1 | 0.00 | 0.00 | 0.00 | 17 | 1016.6 |
| 20260506231038 | 17 | 238 | 16.1 | 29.0 | 0.00 | 0.00 | 0.00 | 17 | 1016.7 |
| 20260506230048 | 17 | 214 | 11.3 | 24.1 | 0.00 | 0.00 | 0.00 | 17 | 1016.5 |
| 20260506225039 | 17 | 263 | 11.3 | 19.3 | 0.00 | 0.00 | 0.00 | 17 | 1016.6 |
| 20260506224109 | 16 | 237 | 11.3 | 29.0 | 0.00 | 0.00 | 0.00 | 17 | 1016.5 |
| 20260506223059 | 17 | 232 | 12.9 | 25.7 | 0.00 | 0.00 | 0.00 | 17 | 1016.4 |
| 20260506222049 | 17 | 207 | 9.7 | 29.0 | 0.00 | 0.00 | 0.00 | 17 | 1016.4 |
| 20260506221039 | 16 | 234 | 12.9 | 20.9 | 0.00 | 0.00 | 0.00 | 18 | 1016.5 |
| 20260506220029 | 16 | 213 | 8.0 | 24.1 | 0.00 | 0.00 | 0.00 | 19 | 1016.5 |
| 20260506215019 | 16 | 229 | 19.3 | 33.8 | 0.00 | 0.00 | 0.00 | 17 | 1016.5 |
| 20260506214110 | 17 | 213 | 16.1 | 25.7 | 0.00 | 0.00 | 0.00 | 18 | 1016.6 |
| 20260506213100 | 16 | 254 | 6.4 | 16.1 | 0.00 | 0.00 | 0.00 | 16 | 1016.4 |
| 20260506212110 | 16 | 274 | 8.0 | 25.7 | 0.00 | 0.00 | 0.00 | 17 | 1016.6 |
| 20260506211040 | 16 | 264 | 11.3 | 29.0 | 0.00 | 0.00 | 0.00 | 19 | 1016.7 |
| 20260506210030 | 16 | 224 | 14.5 | 37.0 | 0.00 | 0.00 | 0.00 | 18 | 1016.6 |
| 20260506205020 | 16 | 262 | 9.7 | 24.1 | 0.00 | 0.00 | 0.00 | 17 | 1016.7 |
| 20260506204110 | 16 | 252 | 9.7 | 24.1 | 0.00 | 0.00 | 0.00 | 20 | 1016.7 |
| 20260506203101 | 16 | 237 | 12.9 | 32.2 | 0.00 | 0.00 | 0.00 | 20 | 1016.7 |
| 20260506202050 | 16 | 233 | 9.7 | 22.5 | 0.00 | 0.00 | 0.00 | 22 | 1016.8 |